When you browse on this site, cookies collect data to enhance your experience and personalize the content and advertising you see.
Visit our Privacy Policy to learn more. By continuing to use the site, you agree to this use of cookies and data.
  • In Österreich
  • Länderverzeichnis
  • Für 7 Tage
  • Wassertemperatur
  • Wetterkarte
  • News
  • Widgets
  • user-avatar
    Anmelden

    Stündliche Wetter Tizayuca

    Heute, 27 Januar, Montag

    Zeit Temperatur Niederschläge Wind Luftdruck Luftfeuchtigkeit
    00:00 +13°C° 0 mm 1 m/S 581 mmHg 64%
    01:00 +13°C° 0 mm 1 m/S 580 mmHg 67%
    02:00 +12°C° 0 mm 1 m/S 580 mmHg 71%
    03:00 +12°C° 0 mm 1 m/S 580 mmHg 73%
    04:00 +11°C° 0 mm 1 m/S 580 mmHg 75%
    05:00 +10°C° 0 mm 0 m/S 580 mmHg 77%
    06:00 +11°C° 0 mm 0 m/S 580 mmHg 72%
    07:00 +12°C° 0 mm 0 m/S 581 mmHg 66%
    08:00 +13°C° 0 mm 0 m/S 582 mmHg 61%
    09:00 +16°C° 0 mm 1 m/S 582 mmHg 53%
    10:00 +17°C° 0 mm 2 m/S 583 mmHg 44%
    11:00 +19°C° 0 mm 2 m/S 583 mmHg 35%
    12:00 +20°C° 0 mm 3 m/S 583 mmHg 30%
    13:00 +21°C° 0 mm 3 m/S 583 mmHg 25%
    14:00 +22°C° 0 mm 3 m/S 582 mmHg 20%
    15:00 +21°C° 0 mm 3 m/S 582 mmHg 21%
    16:00 +21°C° 0 mm 3 m/S 582 mmHg 22%
    17:00 +20°C° 0 mm 3 m/S 581 mmHg 24%
    18:00 +18°C° 0 mm 2 m/S 581 mmHg 30%
    19:00 +17°C° 0 mm 2 m/S 581 mmHg 37%
    20:00 +15°C° 0 mm 1 m/S 581 mmHg 43%
    21:00 +15°C° 0 mm 1 m/S 580 mmHg 44%
    22:00 +14°C° 0 mm 1 m/S 580 mmHg 45%
    23:00 +12°C° 0 mm 0 m/S 580 mmHg 47%

    Morgen, 28 Januar, Dienstag

    Zeit Temperatur Niederschläge Wind Luftdruck Luftfeuchtigkeit
    00:00 +13°C° 0 mm 1 m/S 579 mmHg 47%
    01:00 +12°C° 0 mm 1 m/S 579 mmHg 47%
    02:00 +12°C° 0 mm 1 m/S 578 mmHg 47%
    03:00 +11°C° 0 mm 1 m/S 578 mmHg 46%
    04:00 +11°C° 0 mm 1 m/S 578 mmHg 46%
    05:00 +10°C° 0 mm 1 m/S 578 mmHg 45%
    06:00 +11°C° 0 mm 1 m/S 578 mmHg 40%
    07:00 +12°C° 0 mm 1 m/S 579 mmHg 35%
    08:00 +14°C° 0 mm 1 m/S 580 mmHg 30%
    09:00 +16°C° 0 mm 1 m/S 581 mmHg 24%
    10:00 +17°C° 0 mm 2 m/S 581 mmHg 19%
    11:00 +19°C° 0 mm 2 m/S 582 mmHg 13%
    12:00 +20°C° 0 mm 2 m/S 582 mmHg 12%
    13:00 +21°C° 0 mm 2 m/S 581 mmHg 11%
    14:00 +23°C° 0 mm 2 m/S 581 mmHg 9%
    15:00 +21°C° 0 mm 3 m/S 581 mmHg 13%
    16:00 +20°C° 0 mm 4 m/S 581 mmHg 17%
    17:00 +19°C° 0 mm 5 m/S 581 mmHg 22%
    18:00 +18°C° 0 mm 4 m/S 580 mmHg 31%
    19:00 +16°C° 0 mm 3 m/S 580 mmHg 40%
    20:00 +14°C° 0 mm 2 m/S 580 mmHg 50%
    21:00 +14°C° 0 mm 2 m/S 580 mmHg 52%
    22:00 +13°C° 0 mm 1 m/S 580 mmHg 55%
    23:00 +13°C° 0 mm 1 m/S 580 mmHg 57%

    übermorgen, 29 Januar, Mittwoch

    Zeit Temperatur Niederschläge Wind Luftdruck Luftfeuchtigkeit
    00:00 +12°C° 0 mm 2 m/S 580 mmHg 62%
    01:00 +10°C° 0 mm 2 m/S 579 mmHg 66%
    02:00 +10°C° 0 mm 2 m/S 579 mmHg 70%
    03:00 +9°C° 0 mm 2 m/S 579 mmHg 73%
    04:00 +9°C° 0 mm 2 m/S 579 mmHg 76%
    05:00 +8°C° 0 mm 2 m/S 579 mmHg 79%
    06:00 +9°C° 0 mm 2 m/S 579 mmHg 75%
    07:00 +10°C° 0 mm 2 m/S 580 mmHg 71%
    08:00 +10°C° 0 mm 2 m/S 581 mmHg 67%
    09:00 +13°C° 0 mm 2 m/S 581 mmHg 56%
    10:00 +15°C° 0 mm 2 m/S 582 mmHg 45%
    11:00 +17°C° 0 mm 2 m/S 582 mmHg 34%
    12:00 +19°C° 0 mm 3 m/S 582 mmHg 29%
    13:00 +20°C° 0 mm 4 m/S 582 mmHg 25%
    14:00 +22°C° 0 mm 5 m/S 582 mmHg 20%
    15:00 +21°C° 0 mm 5 m/S 581 mmHg 22%
    16:00 +20°C° 0 mm 5 m/S 581 mmHg 25%
    17:00 +19°C° 0 mm 5 m/S 581 mmHg 28%
    18:00 +17°C° 0 mm 4 m/S 581 mmHg 35%
    19:00 +16°C° 0 mm 3 m/S 581 mmHg 42%
    20:00 +14°C° 0 mm 2 m/S 580 mmHg 49%
    21:00 +14°C° 0 mm 2 m/S 580 mmHg 50%
    22:00 +13°C° 0 mm 2 m/S 580 mmHg 52%
    23:00 +13°C° 0 mm 1 m/S 580 mmHg 53%

    30 Januar, Donnerstag

    Zeit Temperatur Niederschläge Wind Luftdruck Luftfeuchtigkeit
    00:00 +12°C° 0 mm 1 m/S 579 mmHg 54%
    01:00 +12°C° 0 mm 2 m/S 579 mmHg 55%
    02:00 +12°C° 0 mm 2 m/S 578 mmHg 56%
    03:00 +10°C° 0 mm 2 m/S 578 mmHg 58%
    04:00 +10°C° 0 mm 2 m/S 578 mmHg 61%
    05:00 +10°C° 0 mm 2 m/S 578 mmHg 63%
    06:00 +12°C° 0 mm 2 m/S 579 mmHg 59%
    07:00 +12°C° 0 mm 3 m/S 580 mmHg 54%
    08:00 +13°C° 0 mm 3 m/S 581 mmHg 50%
    09:00 +15°C° 0 mm 4 m/S 581 mmHg 40%
    10:00 +17°C° 0 mm 5 m/S 582 mmHg 30%
    11:00 +20°C° 0 mm 6 m/S 582 mmHg 20%
    12:00 +21°C° 0 mm 6 m/S 582 mmHg 19%
    13:00 +21°C° 0 mm 6 m/S 581 mmHg 18%
    14:00 +21°C° 0 mm 7 m/S 581 mmHg 16%
    15:00 +20°C° 0 mm 7 m/S 580 mmHg 19%
    16:00 +19°C° 0 mm 6 m/S 580 mmHg 21%
    17:00 +17°C° 0 mm 6 m/S 580 mmHg 23%
    18:00 +16°C° 0 mm 5 m/S 580 mmHg 26%
    19:00 +15°C° 0 mm 5 m/S 580 mmHg 28%
    20:00 +14°C° 0 mm 4 m/S 580 mmHg 31%
    21:00 +14°C° 0 mm 3 m/S 580 mmHg 34%
    22:00 +14°C° 0 mm 3 m/S 580 mmHg 38%
    23:00 +14°C° 0 mm 2 m/S 580 mmHg 41%

    31 Januar, Freitag

    Zeit Temperatur Niederschläge Wind Luftdruck Luftfeuchtigkeit
    00:00 +14°C° 0 mm 2 m/S 580 mmHg 43%
    01:00 +13°C° 0 mm 2 m/S 579 mmHg 46%
    02:00 +13°C° 0 mm 2 m/S 579 mmHg 48%
    03:00 +13°C° 0 mm 2 m/S 579 mmHg 48%
    04:00 +13°C° 0 mm 2 m/S 579 mmHg 48%
    05:00 +12°C° 0 mm 2 m/S 579 mmHg 49%
    06:00 +13°C° 0 mm 1 m/S 580 mmHg 47%
    07:00 +14°C° 0 mm 1 m/S 581 mmHg 45%
    08:00 +14°C° 0 mm 0 m/S 582 mmHg 43%
    09:00 +16°C° 0 mm 1 m/S 582 mmHg 38%
    10:00 +19°C° 0 mm 1 m/S 583 mmHg 33%
    11:00 +20°C° 0 mm 1 m/S 583 mmHg 28%
    12:00 +20°C° 0 mm 2 m/S 583 mmHg 27%
    13:00 +21°C° 0 mm 2 m/S 583 mmHg 27%
    14:00 +21°C° 0 mm 2 m/S 582 mmHg 26%
    15:00 +19°C° 0.1 mm 2 m/S 582 mmHg 35%
    16:00 +18°C° 0.1 mm 3 m/S 582 mmHg 45%
    17:00 +16°C° 0.1 mm 3 m/S 581 mmHg 54%
    18:00 +14°C° 0.1 mm 3 m/S 581 mmHg 60%
    19:00 +13°C° 0.1 mm 3 m/S 581 mmHg 67%
    20:00 +12°C° 0.1 mm 3 m/S 582 mmHg 73%
    21:00 +13°C° 0.1 mm 2 m/S 582 mmHg 75%
    22:00 +12°C° 0.1 mm 2 m/S 582 mmHg 77%
    23:00 +12°C° 0.1 mm 2 m/S 582 mmHg 78%

    1 Februar, Samstag

    Zeit Temperatur Niederschläge Wind Luftdruck Luftfeuchtigkeit
    00:00 +12°C° 0.1 mm 2 m/S 581 mmHg 79%
    01:00 +10°C° 0.1 mm 2 m/S 581 mmHg 80%
    02:00 +10°C° 0.1 mm 2 m/S 580 mmHg 81%
    03:00 +10°C° 0 mm 2 m/S 581 mmHg 80%
    04:00 +10°C° 0 mm 2 m/S 581 mmHg 79%
    05:00 +10°C° 0 mm 2 m/S 581 mmHg 78%
    06:00 +10°C° 0 mm 2 m/S 582 mmHg 75%
    07:00 +10°C° 0 mm 2 m/S 582 mmHg 73%
    08:00 +10°C° 0 mm 2 m/S 583 mmHg 70%
    09:00 +13°C° 0 mm 2 m/S 583 mmHg 64%
    10:00 +14°C° 0 mm 2 m/S 584 mmHg 58%
    11:00 +16°C° 0 mm 1 m/S 584 mmHg 52%
    12:00 +16°C° 0 mm 2 m/S 584 mmHg 49%
    13:00 +17°C° 0 mm 2 m/S 584 mmHg 47%
    14:00 +18°C° 0 mm 3 m/S 584 mmHg 44%
    15:00 +16°C° 0 mm 3 m/S 583 mmHg 50%
    16:00 +14°C° 0 mm 4 m/S 583 mmHg 55%
    17:00 +13°C° 0 mm 4 m/S 582 mmHg 61%
    18:00 +12°C° 0 mm 4 m/S 582 mmHg 66%
    19:00 +11°C° 0 mm 3 m/S 583 mmHg 71%
    20:00 +9°C° 0 mm 3 m/S 583 mmHg 75%
    21:00 +9°C° 0 mm 2 m/S 583 mmHg 75%
    22:00 +9°C° 0 mm 2 m/S 583 mmHg 76%
    23:00 +10°C° 0 mm 1 m/S 583 mmHg 76%
    Mehr zeigen